Beaufort, NC

3:25 PM EDT on October 16, 2019 (GMT -0400)
Smith

Weather History for KMRH - June, 2019

Change the Weather History Date:

Friday, June 7, 2019

  Actual Average Record
Temperature  
Mean Temperature 78 °F -  
Max Temperature 84 °F 82 °F 91 °F (2008)
Min Temperature 73 °F 66 °F 57 °F (1977)
Cooling Degree Days 14    
Growing Degree Days 28 (Base 50)    
Moisture  
Dew Point 72 °F    
Average Humidity 79    
Maximum Humidity 91    
Minimum Humidity 63    
Precipitation  
Precipitation 0.00 in - - ()
Sea Level Pressure  
Sea Level Pressure 29.86 in    
Wind  
Wind Speed 9 mph (SSW)    
Max Wind Speed 13 mph    
Max Gust Speed -    
Visibility 10 miles    
Events Rain    
Averages and records for this station are not official NWS values.
T = Trace of Precipitation, MM = Missing Value Source: NWS Daily Summary

Daily Weather History Graph

Daily Weather History Graph

Search for Another Location

Airport or City:

Astronomy

Jun. 07, 2019 Rise Set
Actual Time 5:53 AM EDT 8:17 PM EDT
Civil Twilight 5:23 AM EDT 8:47 PM EDT
Nautical Twilight 4:47 AM EDT 9:23 PM EDT
Astronomical Twilight 4:08 AM EDT 10:03 PM EDT
Moon 10:05 AM EDT (6/7) No Moon Set
Length of Visible Light 15h 23m
Length of Day
14h 24m
Waxing Crescent, 22% of the Moon is Illuminated
Jun 7
Waxing Crescent
Jun 10
First Quarter
Jun 17
Full
Jun 25
Last Quarter
Jul 2
New

Hourly Weather History & Observations

Time (EDT) Temp. Heat Index Dew Point Humidity Pressure Visibility Wind Dir Wind Speed Gust Speed Precip Events Conditions
12:27 AM 78.1 °F - 73.0 °F 84% 29.88 in 10.0 mi SW 10.4 mph - 0.00 in   Mostly Cloudy
12:58 AM 78.1 °F - 73.9 °F 87% 29.87 in 10.0 mi SW 11.5 mph - 0.00 in   Partly Cloudy
1:30 AM 78.1 °F - 73.9 °F 87% 29.86 in 10.0 mi SW 12.7 mph - N/A   Scattered Clouds
1:58 AM 78.1 °F - 72.0 °F 81% 29.86 in 10.0 mi SW 12.7 mph - N/A   Partly Cloudy
2:58 AM 78.1 °F - 72.0 °F 81% 29.85 in 10.0 mi SSW 9.2 mph - N/A   Partly Cloudy
3:58 AM 77.0 °F - 72.0 °F 84% 29.85 in 10.0 mi WSW 8.1 mph - N/A   Clear
4:58 AM 78.1 °F - 72.0 °F 81% 29.86 in 10.0 mi WSW 10.4 mph - N/A   Overcast
5:58 AM 78.1 °F - 72.0 °F 81% 29.86 in 10.0 mi WSW 8.1 mph - N/A   Mostly Cloudy
6:58 AM 78.1 °F - 72.0 °F 81% 29.88 in 10.0 mi WNW 6.9 mph - N/A   Overcast
7:58 AM 78.1 °F - 72.0 °F 81% 29.88 in 10.0 mi WNW 5.8 mph - N/A   Overcast
8:58 AM 79.0 °F - 72.0 °F 79% 29.87 in 10.0 mi WNW 5.8 mph - N/A   Mostly Cloudy
9:58 AM 80.1 °F 83.6 °F 71.1 °F 74% 29.88 in 10.0 mi WSW 6.9 mph - N/A   Mostly Cloudy
10:58 AM 82.9 °F 87.5 °F 71.1 °F 67% 29.88 in 10.0 mi WSW 5.8 mph - N/A   Scattered Clouds
11:58 AM 82.9 °F 87.5 °F 71.1 °F 67% 29.88 in 10.0 mi South 9.2 mph - N/A   Clear
12:58 PM 82.9 °F 86.5 °F 69.1 °F 63% 29.87 in 10.0 mi South 5.8 mph - N/A   Partly Cloudy
1:58 PM 82.0 °F 86.3 °F 71.1 °F 69% 29.86 in 10.0 mi South 9.2 mph - N/A   Mostly Cloudy
2:26 PM 84.9 °F 92.1 °F 73.9 °F 69% 29.84 in 10.0 mi ESE 9.2 mph - N/A   Mostly Cloudy
2:58 PM 82.0 °F 87.4 °F 73.0 °F 74% 29.84 in 10.0 mi SSE 12.7 mph - N/A   Mostly Cloudy
3:58 PM 81.0 °F 85.2 °F 72.0 °F 74% 29.85 in 10.0 mi SSE 12.7 mph - N/A   Mostly Cloudy
4:58 PM 80.1 °F 83.6 °F 71.1 °F 74% 29.84 in 10.0 mi SSE 9.2 mph - N/A   Overcast
5:58 PM 80.1 °F 83.8 °F 72.0 °F 76% 29.84 in 10.0 mi SSE 8.1 mph - N/A   Scattered Clouds
6:58 PM 79.0 °F - 71.1 °F 77% 29.85 in 10.0 mi South 6.9 mph - N/A   Overcast
7:58 PM 78.1 °F - 73.0 °F 84% 29.87 in 4.0 mi Calm Calm - N/A Rain Heavy Rain
8:58 PM 75.0 °F - 72.0 °F 90% 29.89 in 7.0 mi SW 12.7 mph - N/A Rain Rain
9:58 PM 73.9 °F - 70.0 °F 87% 29.88 in 5.0 mi SSE 3.5 mph - N/A Rain Rain
10:58 PM 73.9 °F - 71.1 °F 91% 29.88 in 10.0 mi South 5.8 mph - N/A   Mostly Cloudy
11:58 PM 75.0 °F - 71.1 °F 87% 29.88 in 10.0 mi South 4.6 mph - N/A   Mostly Cloudy